• In Österreich
  • Länderverzeichnis
  • Für 7 Tage
  • Wassertemperatur
  • Satellitenkarten
  • Wetterkarte
  • News
  • Widgets
  • user-avatar
    Anmelden

    Stündliche Wetter Luksor

    Heute, 22 September, Samstag

    Zeit Temperatur Niederschläge Wind Luftdruck Luftfeuchtigkeit
    00:00 +32°C° 0 mm 4 m/S 750 mmHg 23%
    01:00 +32°C° 0 mm 4 m/S 750 mmHg 25%
    02:00 +30°C° 0 mm 3 m/S 750 mmHg 26%
    03:00 +30°C° 0 mm 3 m/S 750 mmHg 28%
    04:00 +29°C° 0 mm 3 m/S 750 mmHg 30%
    05:00 +29°C° 0 mm 3 m/S 750 mmHg 32%
    06:00 +30°C° 0 mm 4 m/S 750 mmHg 31%
    07:00 +32°C° 0 mm 4 m/S 750 mmHg 30%
    08:00 +33°C° 0 mm 4 m/S 750 mmHg 29%
    09:00 +35°C° 0 mm 5 m/S 750 mmHg 25%
    10:00 +37°C° 0 mm 5 m/S 750 mmHg 21%
    11:00 +40°C° 0 mm 5 m/S 750 mmHg 18%
    12:00 +41°C° 0 mm 5 m/S 750 mmHg 16%
    13:00 +42°C° 0 mm 5 m/S 750 mmHg 15%
    14:00 +43°C° 0 mm 5 m/S 749 mmHg 14%
    15:00 +44°C° 0 mm 6 m/S 749 mmHg 14%
    16:00 +42°C° 0 mm 6 m/S 749 mmHg 15%
    17:00 +42°C° 0 mm 6 m/S 749 mmHg 16%
    18:00 +40°C° 0 mm 6 m/S 749 mmHg 17%
    19:00 +39°C° 0 mm 6 m/S 750 mmHg 19%
    20:00 +36°C° 0 mm 5 m/S 750 mmHg 21%
    21:00 +35°C° 0 mm 5 m/S 750 mmHg 22%
    22:00 +34°C° 0 mm 4 m/S 750 mmHg 23%
    23:00 +34°C° 0 mm 4 m/S 751 mmHg 24%

    Morgen, 23 September, Sonntag

    Zeit Temperatur Niederschläge Wind Luftdruck Luftfeuchtigkeit
    00:00 +33°C° 0 mm 3 m/S 751 mmHg 25%
    01:00 +31°C° 0 mm 3 m/S 750 mmHg 25%
    02:00 +31°C° 0 mm 3 m/S 750 mmHg 26%
    03:00 +30°C° 0 mm 3 m/S 750 mmHg 27%
    04:00 +30°C° 0 mm 3 m/S 750 mmHg 29%
    05:00 +29°C° 0 mm 3 m/S 750 mmHg 30%
    06:00 +30°C° 0 mm 3 m/S 750 mmHg 29%
    07:00 +31°C° 0 mm 3 m/S 751 mmHg 29%
    08:00 +33°C° 0 mm 3 m/S 751 mmHg 28%
    09:00 +35°C° 0 mm 4 m/S 751 mmHg 25%
    10:00 +37°C° 0 mm 4 m/S 751 mmHg 22%
    11:00 +40°C° 0 mm 4 m/S 751 mmHg 18%
    12:00 +42°C° 0 mm 5 m/S 750 mmHg 17%
    13:00 +43°C° 0 mm 5 m/S 750 mmHg 15%
    14:00 +45°C° 0 mm 5 m/S 749 mmHg 14%
    15:00 +43°C° 0 mm 5 m/S 749 mmHg 14%
    16:00 +44°C° 0 mm 6 m/S 749 mmHg 15%
    17:00 +42°C° 0 mm 6 m/S 749 mmHg 15%
    18:00 +41°C° 0 mm 6 m/S 749 mmHg 16%
    19:00 +39°C° 0 mm 5 m/S 750 mmHg 18%
    20:00 +37°C° 0 mm 5 m/S 750 mmHg 19%
    21:00 +36°C° 0 mm 4 m/S 750 mmHg 21%
    22:00 +35°C° 0 mm 4 m/S 750 mmHg 22%
    23:00 +34°C° 0 mm 3 m/S 750 mmHg 23%

    übermorgen, 24 September, Montag

    Zeit Temperatur Niederschläge Wind Luftdruck Luftfeuchtigkeit
    00:00 +33°C° 0 mm 3 m/S 750 mmHg 25%
    01:00 +33°C° 0 mm 3 m/S 750 mmHg 26%
    02:00 +31°C° 0 mm 2 m/S 750 mmHg 28%
    03:00 +30°C° 0 mm 2 m/S 749 mmHg 29%
    04:00 +30°C° 0 mm 2 m/S 749 mmHg 31%
    05:00 +30°C° 0 mm 2 m/S 749 mmHg 32%
    06:00 +31°C° 0 mm 3 m/S 750 mmHg 31%
    07:00 +33°C° 0 mm 3 m/S 750 mmHg 29%
    08:00 +34°C° 0 mm 3 m/S 750 mmHg 28%
    09:00 +36°C° 0 mm 3 m/S 750 mmHg 25%
    10:00 +38°C° 0 mm 3 m/S 750 mmHg 21%
    11:00 +40°C° 0 mm 3 m/S 750 mmHg 18%
    12:00 +42°C° 0 mm 4 m/S 749 mmHg 17%
    13:00 +43°C° 0 mm 4 m/S 749 mmHg 15%
    14:00 +45°C° 0 mm 5 m/S 748 mmHg 13%
    15:00 +45°C° 0 mm 5 m/S 748 mmHg 13%
    16:00 +44°C° 0 mm 6 m/S 748 mmHg 13%
    17:00 +44°C° 0 mm 6 m/S 748 mmHg 13%
    18:00 +41°C° 0 mm 6 m/S 748 mmHg 14%
    19:00 +39°C° 0 mm 5 m/S 749 mmHg 15%
    20:00 +37°C° 0 mm 5 m/S 750 mmHg 16%
    21:00 +36°C° 0 mm 4 m/S 750 mmHg 17%
    22:00 +35°C° 0 mm 4 m/S 750 mmHg 18%
    23:00 +34°C° 0 mm 3 m/S 750 mmHg 19%

    25 September, Dienstag

    Zeit Temperatur Niederschläge Wind Luftdruck Luftfeuchtigkeit
    00:00 +33°C° 0 mm 3 m/S 749 mmHg 20%
    01:00 +33°C° 0 mm 3 m/S 749 mmHg 21%
    02:00 +31°C° 0 mm 3 m/S 749 mmHg 23%
    03:00 +31°C° 0 mm 3 m/S 749 mmHg 24%
    04:00 +30°C° 0 mm 3 m/S 749 mmHg 25%
    05:00 +30°C° 0 mm 3 m/S 749 mmHg 26%
    06:00 +31°C° 0 mm 3 m/S 749 mmHg 26%
    07:00 +33°C° 0 mm 3 m/S 749 mmHg 25%
    08:00 +34°C° 0 mm 4 m/S 749 mmHg 24%
    09:00 +36°C° 0 mm 4 m/S 749 mmHg 21%
    10:00 +38°C° 0 mm 4 m/S 749 mmHg 18%
    11:00 +42°C° 0 mm 5 m/S 749 mmHg 15%
    12:00 +43°C° 0 mm 5 m/S 748 mmHg 14%
    13:00 +45°C° 0 mm 5 m/S 748 mmHg 12%
    14:00 +46°C° 0 mm 6 m/S 747 mmHg 11%
    15:00 +46°C° 0 mm 6 m/S 747 mmHg 12%
    16:00 +45°C° 0 mm 6 m/S 747 mmHg 12%
    17:00 +44°C° 0 mm 6 m/S 747 mmHg 13%
    18:00 +42°C° 0 mm 5 m/S 748 mmHg 15%
    19:00 +40°C° 0 mm 5 m/S 748 mmHg 17%
    20:00 +37°C° 0 mm 5 m/S 749 mmHg 20%
    21:00 +36°C° 0 mm 4 m/S 749 mmHg 21%
    22:00 +35°C° 0 mm 3 m/S 749 mmHg 22%
    23:00 +34°C° 0 mm 3 m/S 749 mmHg 23%

    26 September, Mittwoch

    Zeit Temperatur Niederschläge Wind Luftdruck Luftfeuchtigkeit
    00:00 +34°C° 0 mm 3 m/S 748 mmHg 23%
    01:00 +33°C° 0 mm 3 m/S 748 mmHg 24%
    02:00 +33°C° 0 mm 3 m/S 748 mmHg 24%
    03:00 +31°C° 0 mm 3 m/S 748 mmHg 25%
    04:00 +31°C° 0 mm 3 m/S 748 mmHg 25%
    05:00 +30°C° 0 mm 2 m/S 748 mmHg 26%
    06:00 +31°C° 0 mm 3 m/S 748 mmHg 24%
    07:00 +33°C° 0 mm 3 m/S 749 mmHg 23%
    08:00 +34°C° 0 mm 4 m/S 749 mmHg 21%
    09:00 +36°C° 0 mm 4 m/S 749 mmHg 19%
    10:00 +38°C° 0 mm 4 m/S 749 mmHg 16%
    11:00 +41°C° 0 mm 5 m/S 748 mmHg 13%
    12:00 +42°C° 0 mm 5 m/S 748 mmHg 13%
    13:00 +43°C° 0 mm 5 m/S 747 mmHg 12%
    14:00 +45°C° 0 mm 5 m/S 747 mmHg 11%
    15:00 +45°C° 0 mm 5 m/S 747 mmHg 12%
    16:00 +43°C° 0 mm 5 m/S 747 mmHg 13%
    17:00 +44°C° 0 mm 6 m/S 747 mmHg 13%
    18:00 +41°C° 0 mm 5 m/S 747 mmHg 16%
    19:00 +39°C° 0 mm 5 m/S 748 mmHg 18%
    20:00 +37°C° 0 mm 5 m/S 748 mmHg 21%
    21:00 +36°C° 0 mm 5 m/S 748 mmHg 22%
    22:00 +35°C° 0 mm 5 m/S 748 mmHg 24%
    23:00 +34°C° 0 mm 5 m/S 748 mmHg 25%

    27 September, Donnerstag

    Zeit Temperatur Niederschläge Wind Luftdruck Luftfeuchtigkeit
    00:00 +34°C° 0 mm 4 m/S 748 mmHg 26%
    01:00 +33°C° 0 mm 4 m/S 748 mmHg 27%
    02:00 +31°C° 0 mm 3 m/S 748 mmHg 28%
    03:00 +31°C° 0 mm 3 m/S 748 mmHg 29%
    04:00 +30°C° 0 mm 3 m/S 748 mmHg 30%
    05:00 +29°C° 0 mm 3 m/S 748 mmHg 30%
    06:00 +30°C° 0 mm 4 m/S 749 mmHg 30%
    07:00 +32°C° 0 mm 5 m/S 749 mmHg 31%
    08:00 +33°C° 0 mm 5 m/S 749 mmHg 31%
    09:00 +35°C° 0 mm 6 m/S 749 mmHg 27%
    10:00 +38°C° 0 mm 6 m/S 749 mmHg 24%
    11:00 +39°C° 0 mm 7 m/S 749 mmHg 20%
    12:00 +40°C° 0 mm 7 m/S 748 mmHg 19%
    13:00 +41°C° 0 mm 6 m/S 748 mmHg 17%
    14:00 +42°C° 0 mm 6 m/S 747 mmHg 15%
    15:00 +41°C° 0 mm 6 m/S 747 mmHg 16%
    16:00 +41°C° 0 mm 6 m/S 747 mmHg 16%
    17:00 +40°C° 0 mm 6 m/S 748 mmHg 16%
    18:00 +39°C° 0 mm 6 m/S 748 mmHg 18%
    19:00 +36°C° 0 mm 6 m/S 748 mmHg 20%
    20:00 +35°C° 0 mm 6 m/S 749 mmHg 22%
    21:00 +34°C° 0 mm 5 m/S 749 mmHg 23%
    22:00 +33°C° 0 mm 5 m/S 749 mmHg 24%
    23:00 +33°C° 0 mm 5 m/S 749 mmHg 25%
    Mehr zeigen